NOAA 16 DEB, 41408

Orbit data source: Space-Track

NOAA 16 DEB, 41408 is space debris in SSO originally from a launch on Thu, 21 Sep 2000 UTC launched from the Air Force Western Test Range (AFWTR). Debris objects in space refer to the collection of defunct objects orbiting the Earth. Examples of debris include non-operational satellites, rocket bodies, and fragments generated from explosions, collisions, or faulty payload assembly.

Loading next visibility...
Identifier
41408, 2000-055KM
Orbit
SSO
Country
Flag of USUS
Related business
Manufacturer
Unknown
Mission
Spacecraft
Bus & Motor
Unknown
Mass
Unknown
Launch date (UTC)
2000-09-21 (26 years ago)
Launch vehicle
Unknown
Launch site
Air Force Western Test Range (AFWTR)
Object type
Payload
Rocket body
Debris
Shape & HBR
Unknown shape, 0.1 m
Radar Cross Section
Small (<0.1 m²)

Expand to show TLE details & history
Last TLE update: 10 hours ago

TLE from 10 hours ago
0 NOAA 16 DEB
1 41408U 00055KM  26130.52822883  .00002751  00000-0  10013-2 0  9999
2 41408  98.7210 227.9671 0008660   8.0767 352.0555 14.33988489529848
Epoch: 2026-05-10T12:40Z
TLE epoch observation values (Epoch: 2026-05-10T12:40:38.970Z)
Latitude
-0.00006°
Longitude
169.47472°
Altitude
775.224 km
Speed
7.47 km/s
True Right ascension
15h 11m 52s
True Declination
0° 00' 00"
Sunlit
Object was in full shadow at epoch
Visualization orbit readout
Latitude
Unknown
Longitude
Unknown
Altitude
Unknown
Speed
Unknown
Apparent Right ascension
Unknown
Apparent Declination
Unknown
Sunlit
N/A
Visualization observer readout
Local Sidereal Time
07:09:32
Azimuth
Unknown
Elevation
Unknown
Doppler factor
Unknown
Orbital elements
Apogee altitude
781.765 km
Perigee altitude
769.375 km
Semi-major axis
7,153.707 km
Eccentricity
0.00087
Inclination
98.721°
RAAN
227.9671°
Arg. of periapsis
8.0767°
True anomaly
352.04177°
Mean anomaly
352.0555°
Eccentric anomaly
352.04864°
Mean motion
3.58712 °/min
Orbital period
100.36 mins
BSTAR
0.0010013
Loading maneuver chart data...
Computing Atmospheric mass density...
Loading historical data...
Loading historical data...
Loading historical data...
Loading historical data...
Loading historical data...
Loading historical data...
Loading historical data...

Documentation

Showing up to 5 results
|